#timestamp,LO_Frequency,Hit,StdDev 
1514775615.9,286047015.1,P
1514775635.7,286047016.6,N
1514775655.5,286047018.2,N
1514775675.4,286047017.5,N
1514775695.2,286047014.4,N
1514775715.0,286047014.9,N
1514775715.9,286047014.9,N
1514775735.8,286047016.8,Y
1514775755.6,286047000.6,P
1514775775.4,286047000.0,N
1514775795.3,286047002.7,N
1514775815.1,286046998.2,N
1514775835.8,286046995.4,N
1514775855.7,286046996.0,N
1514775875.5,286046994.1,N
1514775895.3,286046994.3,N
1514775915.2,286047000.4,N
1514775935.9,286047002.4,N
1514775955.7,286046996.9,N
1514775975.5,286046995.8,N
1514775995.4,286046999.1,N
1514776015.2,286046999.0,N
1514776035.0,286046996.5,N
1514776035.9,286046996.5,N
1514776055.8,286046995.9,N
1514776075.6,286046991.7,N
1514776095.4,286046992.3,N
1514776115.3,286046990.4,N
1514776135.1,286046992.1,N
1514776136.0,286046992.1,N
1514776155.8,286046992.9,N
1514776175.7,286046991.1,N
1514776195.5,286046995.4,N
1514776215.3,286046991.7,N
1514776235.1,286046992.6,N
1514776255.9,286046993.7,N
1514776275.7,286046992.4,N
1514776295.5,286046988.8,N
1514776315.4,286046988.5,Y
1514776335.2,286046993.5,P
1514776355.0,286046996.0,P
1514776356.0,286046996.0,P
1514776375.8,286046995.8,Y
1514776395.6,286046999.0,P
1514776415.5,286046998.2,N
1514776435.3,286047004.3,N
1514776455.1,286047001.7,N
1514776475.8,286047003.9,N
1514776495.7,286047005.9,N
1514776515.5,286047002.9,N
1514776535.3,286047005.4,N
1514776555.2,286047003.2,N
1514776575.9,286047003.9,N
1514776595.7,286047012.0,Y
1514776615.6,286047002.9,P
1514776635.4,286047001.1,N
1514776655.2,286047002.6,P
1514776675.1,286047004.7,Y
1514776676.0,286047004.7,P
1514776695.8,286047002.8,N
1514776715.6,286047002.0,N
1514776735.5,286047000.4,N
1514776755.3,286047002.7,N
1514776775.1,286047000.6,N
1514776795.9,286046997.0,N
1514776815.7,286046996.5,N
1514776835.5,286046998.8,N
1514776855.3,286046998.3,N
1514776875.2,286046998.9,N
1514776895.0,286047000.2,N
1514776895.9,286047000.2,N
1514776915.7,286047001.2,N
1514776935.6,286046996.5,N
1514776955.4,286046995.1,N
1514776975.2,286046997.9,N
1514776995.1,286046999.0,N
1514776996.0,286046999.0,N
1514777015.8,286046996.6,N
1514777035.6,286046996.5,N
1514777055.5,286046996.0,N
1514777075.3,286046997.4,N
1514777095.1,286046999.4,N
1514777115.9,286047002.8,N
1514777135.7,286047002.2,N
1514777155.5,286046998.1,N
1514777175.3,286047004.4,N
1514777195.2,286047005.8,N
1514777215.0,286047003.8,N
1514777215.9,286047003.8,N
1514777235.7,286047002.5,N
1514777255.6,286047002.6,N
1514777275.4,286046998.1,N
1514777295.2,286046999.6,N
1514777315.1,286046995.0,N
1514777316.0,286046995.0,N
1514777335.8,286046993.8,N
1514777355.6,286046996.0,N
1514777375.5,286046996.9,N
1514777395.3,286046999.0,N
1514777415.1,286046996.6,N
1514777435.9,286046995.6,N
1514777455.7,286046995.3,N
1514777475.5,286046995.7,N
1514777495.4,286046999.3,N
1514777515.2,286046999.0,N
1514777535.0,286046999.2,N
1514777535.9,286046999.2,N
1514777555.8,286047001.0,N
1514777575.6,286046997.8,N
1514777595.4,286046994.3,N
1514777615.2,286046995.8,N
1514777635.1,286047000.0,N
1514777636.0,286047000.0,N
1514777655.8,286046996.6,N
1514777675.6,286046996.1,N
1514777695.5,286046995.6,N
1514777715.3,286046993.8,N
1514777735.1,286046992.6,N
1514777755.9,286046992.3,N
1514777775.7,286046990.8,Y
1514777795.5,286046993.6,P
1514777815.4,286046994.0,P
1514777835.2,286046991.3,P
1514777855.0,286046992.9,Y
1514777855.9,286046992.9,P
1514777875.8,286046999.0,N
1514777895.6,286046995.3,N
1514777915.4,286046997.3,N
1514777935.3,286046996.9,N
1514777955.1,286046997.1,N
1514777956.0,286046997.1,N
1514777975.8,286046997.8,N
1514777995.7,286046997.0,N
1514778015.5,286047000.8,N
1514778035.3,286047000.1,N
1514778055.2,286046999.8,N
1514778075.9,286046998.1,N
1514778095.7,286046998.4,N
1514778115.5,286047000.8,N
1514778135.4,286047003.1,N
1514778155.2,286047002.1,N
1514778175.0,286047005.6,N
1514778175.9,286047005.6,N
1514778195.8,286047007.6,N
1514778215.6,286047005.3,N
1514778235.4,286047004.2,N
1514778255.3,286047000.0,N
1514778275.1,286047000.7,N
1514778276.0,286047000.7,N
1514778295.8,286046998.2,N
1514778315.7,286046997.7,N
1514778335.5,286046997.9,N
1514778355.3,286046997.0,N
1514778375.1,286046997.1,N
1514778395.9,286046998.9,N
1514778415.7,286046999.1,N
1514778435.5,286047000.1,N
1514778455.4,286046999.7,N
1514778475.2,286047000.0,N
1514778495.0,286046999.7,N
1514778495.9,286046999.7,N
1514778515.8,286047000.4,N
1514778535.6,286046999.8,N
1514778555.4,286047002.2,N
1514778575.3,286047005.8,N
1514778595.1,286047006.9,N
1514778596.0,286047006.9,N
1514778615.8,286047005.2,N
1514778635.7,286047003.4,N
1514778655.5,286047003.0,N
1514778675.3,286047005.6,N
1514778695.2,286047003.9,N
1514778715.9,286047004.2,N
1514778735.7,286047000.3,N
1514778755.5,286047000.8,N
1514778775.4,286047000.7,N
1514778795.2,286046998.5,N
1514778815.0,286047000.0,N
1514778815.9,286047000.0,N
1514778835.8,286046999.8,N
1514778855.6,286047000.2,N
1514778875.4,286047000.7,N
1514778895.3,286047002.6,N
1514778915.1,286047000.7,N
1514778916.0,286047000.7,N
1514778935.8,286046996.7,N
1514778955.7,286046999.9,N
1514778975.5,286046997.0,N
1514778995.3,286046995.5,N
1514779015.2,286046996.6,N
1514779035.9,286047000.9,N
1514779055.7,286047000.1,N
1514779075.6,286047000.2,N
1514779095.4,286047001.1,N
1514779115.2,286046998.1,N
1514779135.0,286047000.3,N
1514779135.9,286047000.3,N
1514779155.8,286047002.1,N
1514779175.6,286047001.0,N
1514779195.4,286047004.3,N
